Minneapolis Flying Cloud, MN

9:55 AM CDT on October 16, 2019 (GMT -0500)
Flying Cloud

Weather History for KFCM - August, 2019

Change the Weather History Date:

Thursday, August 15, 2019

  Actual Average Record
Temperature  
Mean Temperature 69 °F -  
Max Temperature 79 °F 78 °F 95 °F (2003)
Min Temperature 60 °F 58 °F 52 °F (2004)
Cooling Degree Days 4    
Growing Degree Days 19 (Base 50)    
Moisture  
Dew Point 59 °F    
Average Humidity 71    
Maximum Humidity 87    
Minimum Humidity 50    
Precipitation  
Precipitation 0.02 in - - ()
Sea Level Pressure  
Sea Level Pressure 29.95 in    
Wind  
Wind Speed 3 mph (SSW)    
Max Wind Speed 9 mph    
Max Gust Speed -    
Visibility 10 miles    
Events Rain    
Averages and records for this station are not official NWS values.
T = Trace of Precipitation, MM = Missing Value Source: NWS Daily Summary

Daily Weather History Graph

Daily Weather History Graph

Search for Another Location

Airport or City:

Astronomy

Aug. 15, 2019 Rise Set
Actual Time 6:15 AM CDT 8:20 PM CDT
Civil Twilight 5:43 AM CDT 8:51 PM CDT
Nautical Twilight 5:04 AM CDT 9:30 PM CDT
Astronomical Twilight 4:21 AM CDT 10:14 PM CDT
Moon 8:49 PM CDT (8/15) 6:08 AM CDT (8/15)
Length of Visible Light 15h 08m
Length of Day
14h 04m
Full, 100% of the Moon is Illuminated
Aug 15
Full
Aug 23
Last Quarter
Aug 30
New
Sep 5
First Quarter
Sep 13
Full

Hourly Weather History & Observations

Time (CDT) Temp. Dew Point Humidity Pressure Visibility Wind Dir Wind Speed Gust Speed Precip Events Conditions
12:53 AM 64.0 °F 57.9 °F 80% 30.04 in 10.0 mi Calm Calm - N/A   Mostly Cloudy
1:53 AM 64.0 °F 57.0 °F 78% 30.04 in 10.0 mi Calm Calm - N/A   Mostly Cloudy
2:53 AM 61.0 °F 55.9 °F 83% 30.03 in 10.0 mi Calm Calm - N/A   Clear
3:53 AM 60.1 °F 55.9 °F 86% 30.03 in 10.0 mi Calm Calm - N/A   Clear
4:53 AM 60.1 °F 55.9 °F 86% 30.03 in 10.0 mi Calm Calm - N/A   Clear
5:53 AM 60.1 °F 55.9 °F 86% 30.03 in 10.0 mi Calm Calm - N/A   Scattered Clouds
6:53 AM 60.1 °F 55.9 °F 86% 30.02 in 10.0 mi Calm Calm - N/A   Clear
7:53 AM 63.0 °F 59.0 °F 87% 30.03 in 10.0 mi Calm Calm - N/A   Clear
8:53 AM 66.0 °F 60.1 °F 81% 30.01 in 7.0 mi Calm Calm - N/A   Mostly Cloudy
9:53 AM 71.1 °F 62.1 °F 73% 29.99 in 10.0 mi Variable 5.8 mph - N/A   Clear
10:53 AM 73.9 °F 59.0 °F 59% 29.99 in 10.0 mi South 4.6 mph - N/A   Clear
11:53 AM 73.9 °F 57.9 °F 57% 29.98 in 10.0 mi South 5.8 mph - N/A   Mostly Cloudy
12:53 PM 75.9 °F 59.0 °F 56% 29.96 in 10.0 mi West 5.8 mph - N/A   Overcast
1:53 PM 77.0 °F 59.0 °F 54% 29.93 in 10.0 mi SSW 6.9 mph - N/A   Scattered Clouds
2:53 PM 78.1 °F 57.9 °F 50% 29.92 in 10.0 mi South 9.2 mph - N/A   Scattered Clouds
3:53 PM 77.0 °F 59.0 °F 54% 29.90 in 10.0 mi SSW 9.2 mph - N/A   Mostly Cloudy
4:53 PM 77.0 °F 60.1 °F 56% 29.89 in 10.0 mi South 6.9 mph - N/A   Mostly Cloudy
5:53 PM 75.9 °F 61.0 °F 60% 29.87 in 10.0 mi SSW 9.2 mph - N/A   Scattered Clouds
6:53 PM 75.0 °F 61.0 °F 62% 29.87 in 10.0 mi South 8.1 mph - N/A   Partly Cloudy
8:53 PM 73.0 °F 62.1 °F 68% 29.84 in 10.0 mi South 8.1 mph - N/A   Clear
9:53 PM 71.1 °F 62.1 °F 73% 29.83 in 10.0 mi SSE 5.8 mph - N/A   Clear
10:53 PM 70.0 °F 62.1 °F 76% 29.83 in 10.0 mi SSW 8.1 mph - 0.00 in   Mostly Cloudy
11:53 PM 66.9 °F 63.0 °F 87% 29.81 in 10.0 mi South 6.9 mph - 0.02 in Rain Light Rain